Weather History for Houma, LA

Change the Weather History Date:

Thursday, September 13, 2012

  Actual Average Record
Temperature  
Mean Temperature 78 °F -  
Max Temperature 84 °F 88 °F 95 °F (1947)
Min Temperature 71 °F 70 °F 49 °F (1940)
Cooling Degree Days 12    
Growing Degree Days 28 (Base 50)    
Moisture  
Dew Point 73 °F    
Average Humidity 96    
Maximum Humidity 100    
Minimum Humidity 66    
Precipitation  
Precipitation 0.06 in - - ()
Sea Level Pressure  
Sea Level Pressure 30.10 in    
Wind  
Wind Speed 5 mph (NE)    
Max Wind Speed 18 mph    
Max Gust Speed 23 mph    
Visibility 6 miles    
Events Rain , Thunderstorm    
Averages and records for this station are not official NWS values.
T = Trace of Precipitation, MM = Missing Value Source: NWS Daily Summary

Daily Weather History Graph

Daily Weather History Graph

Search for Another Location

Airport:

Trip Planner

Search our weather history database for the weather conditions in past years. The results will help you decide how hot, cold, wet, or windy it might be!

Date:

Astronomy

Sep. 13, 2012 Rise Set
Actual Time 6:46 AM CDT 7:09 PM CDT
Civil Twilight 6:22 AM CDT 7:33 PM CDT
Nautical Twilight 5:54 AM CDT 8:01 PM CDT
Astronomical Twilight 5:26 AM CDT 8:29 PM CDT
Moon 4:15 AM CDT (9/13) 5:26 PM CDT (9/13)
Length of Visible Light 13h 10m
Length of Day
12h 23m
Waning Crescent, 7% of the Moon is Illuminated
Sep 13
Waning Crescent
Sep 15
New
Sep 22
First Quarter
Sep 29
Full
Oct 8
Last Quarter

Hourly Weather History & Observations

Time (CDT) Temp. Heat Index Dew Point Humidity Pressure Visibility Wind Dir Wind Speed Gust Speed Precip Events Conditions
12:35 AM 73.6 °F - 73.6 °F 100% 30.11 in - ENE 4.6 mph - N/A Thunderstorm Thunderstorm
12:55 AM 73.6 °F - 73.6 °F 100% 30.11 in - NE 4.6 mph - N/A   Unknown
1:15 AM 73.6 °F - 73.6 °F 100% 30.10 in - ENE 3.5 mph - N/A   Unknown
1:55 AM 73.0 °F - 73.0 °F 100% 30.09 in - ENE 3.5 mph - N/A   Unknown
2:15 AM 73.2 °F - 73.2 °F 100% 30.09 in - ENE 5.8 mph - N/A   Unknown
2:35 AM 72.9 °F - 72.9 °F 100% 30.09 in - ENE 4.6 mph - N/A   Unknown
2:55 AM 72.7 °F - 72.7 °F 100% 30.08 in - ENE 4.6 mph - N/A   Unknown
3:15 AM 72.5 °F - 72.5 °F 100% 30.07 in - ENE 3.5 mph - N/A   Unknown
3:35 AM 72.1 °F - 72.1 °F 100% 30.07 in - Calm Calm - N/A   Unknown
3:55 AM 71.8 °F - 71.8 °F 100% 30.07 in - ENE 3.5 mph - N/A   Unknown
4:15 AM 72.0 °F - 72.0 °F 100% 30.07 in - ENE 4.6 mph - N/A   Unknown
4:35 AM 72.5 °F - 72.5 °F 100% 30.07 in - NE 4.6 mph - N/A   Unknown
4:55 AM 72.9 °F - 72.9 °F 100% 30.08 in - NE 4.6 mph - N/A   Mostly Cloudy
5:15 AM 72.7 °F - 72.7 °F 100% 30.08 in - NE 3.5 mph - N/A   Mostly Cloudy
5:35 AM 72.3 °F - 72.3 °F 100% 30.08 in - Calm Calm - N/A   Unknown
5:49 AM 71.6 °F - 71.6 °F 100% 30.09 in 7.0 mi NE 8.1 mph - N/A   Scattered Clouds
5:55 AM 72.0 °F - 72.0 °F 100% 30.08 in - NE 4.6 mph - N/A   Unknown
6:50 AM 71.6 °F - 71.6 °F 100% 30.11 in 6.0 mi NE 3.5 mph - N/A   Partly Cloudy
7:50 AM 73.4 °F - 73.4 °F 100% 30.12 in 6.0 mi NE 3.5 mph - N/A   Partly Cloudy
8:51 AM 78.8 °F - 75.2 °F 89% 30.13 in 7.0 mi NE 10.4 mph - N/A   Partly Cloudy
9:51 AM 78.8 °F - 75.2 °F 89% 30.14 in 7.0 mi ENE 11.5 mph - N/A   Scattered Clouds
11:50 AM 84.2 °F 89.6 °F 71.6 °F 66% 30.12 in 7.0 mi East 9.2 mph - N/A   Scattered Clouds
12:50 PM 78.8 °F - 73.4 °F 83% 30.13 in 3.0 mi ESE 18.4 mph 23.0 mph N/A Rain , Thunderstorm Thunderstorms and Rain
1:50 PM 78.8 °F - 73.4 °F 83% 30.10 in 7.0 mi NNE 5.8 mph - N/A   Mostly Cloudy
2:50 PM 78.8 °F - 73.4 °F 83% 30.10 in 1.0 mi North 17.3 mph - N/A Rain , Thunderstorm Thunderstorms and Rain
3:15 PM 71.6 °F - 71.6 °F 100% 30.08 in 4.0 mi South 5.8 mph - N/A   Mostly Cloudy
3:50 PM 71.6 °F - 71.6 °F 100% 30.07 in 7.0 mi NNW 9.2 mph - N/A   Mostly Cloudy
4:50 PM 78.8 °F - 75.2 °F 89% 30.06 in 7.0 mi North 6.9 mph - N/A   Mostly Cloudy
5:55 PM 80.6 °F 86.2 °F 75.2 °F 84% 30.06 in 7.0 mi ENE 5.8 mph - N/A   Mostly Cloudy
6:50 PM 78.8 °F - 73.4 °F 83% 30.06 in 7.0 mi ENE 11.5 mph - N/A   Scattered Clouds
7:15 PM 76.6 °F - 74.5 °F 93% 30.07 in - NE 4.6 mph - N/A   Unknown
7:35 PM 75.4 °F - 74.3 °F 96% 30.07 in - NE 3.5 mph - 0.01 in   Unknown
7:55 PM 74.7 °F - 74.3 °F 99% 30.08 in - NE 4.6 mph - 0.01 in   Unknown
8:15 PM 75.0 °F - 74.3 °F 98% 30.09 in - ENE 4.6 mph - 0.01 in   Unknown
8:35 PM 74.5 °F - 74.1 °F 99% 30.10 in - NE 4.6 mph - 0.01 in   Unknown
8:55 PM 73.9 °F - 73.9 °F 100% 30.11 in - NE 3.5 mph - 0.01 in   Unknown
9:15 PM 73.9 °F - 73.8 °F 99% 30.11 in - NE 3.5 mph - N/A   Unknown
9:35 PM 73.8 °F - 73.6 °F 99% 30.12 in - ENE 3.5 mph - 0.01 in   Unknown
9:55 PM 73.2 °F - 73.2 °F 100% 30.12 in - NNE 3.5 mph - 0.01 in   Unknown
10:15 PM 73.0 °F - 73.0 °F 100% 30.13 in - NE 3.5 mph - 0.01 in   Unknown
10:35 PM 72.7 °F - 72.7 °F 100% 30.13 in - NE 3.5 mph - 0.01 in   Unknown
10:55 PM 72.0 °F - 72.0 °F 100% 30.13 in - NE 4.6 mph - 0.02 in   Unknown
11:15 PM 72.1 °F - 72.1 °F 100% 30.13 in - NE 3.5 mph - 0.01 in   Unknown
11:35 PM 72.0 °F - 72.0 °F 100% 30.13 in - NE 4.6 mph - 0.01 in   Unknown
11:55 PM 72.1 °F - 72.1 °F 100% 30.13 in - NNE 4.6 mph - 0.01 in   Unknown